Location: Bishop�s Knoyle
(51.0728°N, 2.1714°W)
Time: 18:27:36
(UTC+00:00)

Cosmos 1328 Rocket - Visible Passes

Search period start: 16 April 2021 00:00
Search period end: 26 April 2021 00:00
Orbit: 602 x 626 km, 82.5° (Epoch: 15 April)

Date Brightness Start Highest point End Pass type
(mag) Time Alt. Az. Time Alt. Az. Time Alt. Az.
16 Apr 5.0 01:24:51 30° NW 01:24:51 30° NW 01:28:12 10° N visible
17 Apr 4.7 00:03:23 40° NE 00:03:23 40° NE 00:06:29 10° NNE visible
17 Apr 5.4 01:40:25 20° WNW 01:40:25 20° WNW 01:43:34 10° NNW visible
17 Apr 6.1 22:41:55 11° ENE 22:41:55 11° ENE 22:42:30 10° ENE visible
18 Apr 4.3 00:18:57 52° N 00:18:57 52° N 00:22:22 10° N visible
18 Apr 5.9 01:55:59 13° WNW 01:56:22 13° WNW 01:58:32 10° NNW visible
18 Apr 5.6 22:57:28 18° ENE 22:57:28 18° ENE 22:59:31 10° NE visible
19 Apr 4.4 00:34:30 47° NW 00:34:30 47° NW 00:38:07 10° N visible
19 Apr 5.1 23:13:01 27° ENE 23:13:01 27° ENE 23:15:52 10° NNE visible
20 Apr 4.8 00:50:03 33° WNW 00:50:03 33° WNW 00:53:44 10° N visible
20 Apr 4.4 23:28:33 42° NE 23:28:33 42° NE 23:31:56 10° NNE visible
21 Apr 5.4 01:05:35 22° WNW 01:05:41 22° WNW 01:09:09 10° NNW visible
21 Apr 6.0 22:07:02 11° ENE 22:07:02 11° ENE 22:07:34 10° ENE visible
21 Apr 3.9 23:44:04 63° NNE 23:44:04 63° NNE 23:47:51 10° NNE visible
22 Apr 5.9 01:21:06 14° WNW 01:21:48 14° WNW 01:24:13 10° NNW visible
22 Apr 5.5 22:22:33 17° ENE 22:22:33 17° ENE 22:24:52 10° NE visible
22 Apr 4.0 23:59:35 56° NW 23:59:35 56° NW 00:03:37 10° N visible
23 Apr 4.9 22:38:03 27° ENE 22:38:03 27° ENE 22:41:16 10° NNE visible
24 Apr 4.7 00:15:05 36° WNW 00:15:07 36° WNW 00:19:15 10° N visible
24 Apr 4.2 22:53:32 45° ENE 22:53:32 45° ENE 22:57:23 10° NNE visible
25 Apr 5.3 00:30:33 23° WNW 00:31:07 23° WNW 00:34:43 10° NNW visible
25 Apr 3.5 23:09:00 76° ENE 23:09:00 76° ENE 23:13:19 10° NNE visible
